[[{"header":{"parameterUnit":"m.s-1","parameterCategory":1,"la1":30.2991,"la2":30.254,"lo1":-89.0895,"lo2":-89.0444,"dy":0.0017,"dx":0.0017,"nx":28,"ny":28,"refTime":"2024-02-24T03:00:00:Z","depth":0,"parameterNumber":2,"parameterNumberName":"U-component_of_WINDS"},"data":[0,0,0,0,0,0,0,0,0,0,0,0,0,0,0,0,0,0,0,0,0,0,0,0,0,0,0,0,0,0,0,0,0,0,0,0,0,0,0,0,0,0,0,0,0,0,0,0,0,0,0,0,0,0,0,0,0,0,3.8888,3.8888,0,3.8904,3.8904,3.8904,3.8893,3.8893,3.8892,3.8892,3.891,3.891,3.8911,0,0,0,0,0,0,0,0,0,0,0,0,0,3.8852,3.8852,3.8887,3.8888,3.8888,3.8904,3.8904,3.8904,3.8893,3.8893,3.8892,3.8892,3.8909,3.891,3.8911,0,0,0,0,0,0,0,0,0,0,0,0,0,3.8868,3.8853,3.8887,3.8884,3.8884,3.8904,3.8904,3.8904,3.8894,3.8893,3.8892,3.8891,3.8909,3.891,3.8912,3.8935,0,0,3.8916,3.8916,0,0,0,0,0,0,0,0,3.8867,3.8869,3.8885,3.8885,3.8885,3.8896,3.8898,3.8915,3.8894,3.889,3.8892,3.8891,3.8906,3.8907,3.8912,3.8936,3.8937,3.8916,3.8917,3.8917,3.8918,0,0,0,0,0,0,0,3.8866,3.8868,3.8894,3.8885,3.8885,3.8884,3.8885,3.8901,3.8902,3.889,3.889,3.8892,3.8905,3.8911,3.8912,3.8937,3.8916,3.8917,3.8918,3.8919,3.8988,3.8989,0,0,0,0,0,0,3.8864,3.8867,3.8893,3.8894,3.8874,3.8885,3.8887,3.8893,3.8902,3.8902,3.8892,3.8891,3.8909,3.8911,3.8913,3.8945,3.8917,3.8919,3.892,3.8987,3.8988,3.8989,0,0,0,0,0,0,3.8864,3.8867,3.8893,3.8881,3.8884,3.8886,3.8894,3.8894,3.8899,3.8903,3.8903,3.8897,3.8908,3.8911,3.8931,3.8945,3.8919,3.8921,3.8986,3.8987,3.8989,3.9007,0,0,0,0,0,0,3.8863,3.8867,3.8874,3.8881,3.8885,3.8909,3.8894,3.8895,3.8901,3.89,3.8908,3.8908,3.8908,3.8929,3.8933,3.8947,3.8922,3.8984,3.8986,3.8988,3.9005,3.9008,3.9012,0,0,0,0,0,3.8861,3.8877,3.8874,3.8878,3.8894,3.891,3.8912,3.8911,3.8902,3.8911,3.8915,3.8908,3.8943,3.8931,3.8935,3.895,3.8983,3.8986,3.8988,3.9003,3.9008,3.9012,0,0,0,0,0,0,3.887,3.8878,3.8875,3.8893,3.8901,3.8908,3.8918,3.8915,3.8925,3.8923,3.8922,3.8924,3.8946,3.895,3.8936,3.8976,3.8962,3.8965,3.8973,3.8977,3.898,3.8979,3.8923,0,0,0,0,0,3.8875,3.8886,3.8892,3.8908,3.8913,3.8915,3.8922,3.8921,3.8929,3.8932,3.8937,3.8946,3.896,3.8969,3.8981,3.9006,3.9009,3.9018,3.9022,3.9025,3.9027,3.9046,3.9051,3.8996,3.8996,3.8996,0,0,3.8883,3.8889,3.8896,3.891,3.8916,3.8931,3.8918,3.8932,3.8943,3.8934,3.8954,3.8959,3.897,3.8993,3.9004,3.8997,3.9044,3.9027,3.903,3.9031,3.9048,3.9054,3.9058,3.8998,3.8998,3.8997,0,0,3.8906,3.8911,3.8926,3.8934,3.8944,3.8947,3.8951,3.8959,3.8963,3.8983,3.8979,3.8993,3.9015,3.9024,3.9031,3.9065,3.906,3.9069,3.9087,3.9105,3.9109,3.9113,3.9128,3.9133,3.9072,3.9072,3.9072,0,3.8916,3.8935,3.8935,3.8951,3.8959,3.8954,3.8972,3.8979,3.8993,3.9,3.8992,3.9024,3.903,3.9058,3.9067,3.9072,3.9079,3.9067,3.9108,3.9112,3.9116,3.913,3.9136,3.9073,3.9073,3.9073,3.9072,0,3.8948,3.8962,3.8974,3.8989,3.8999,3.9016,3.902,3.9031,3.903,3.9035,3.9059,3.9067,3.9083,3.909,3.9088,3.912,3.9116,3.9108,3.9094,3.9122,3.9136,3.9141,3.9074,3.9074,3.9074,3.9073,0,0,3.8973,3.8992,3.8996,3.9006,3.9019,3.9031,3.905,3.9067,3.9077,3.9089,3.9106,3.9128,3.9123,3.9132,3.9132,3.9148,3.9179,3.914,3.914,3.9149,3.9218,3.9225,3.9231,3.9177,3.9178,3.9178,3.9219,0,3.8998,3.903,3.9034,3.9063,3.9079,3.9077,3.9095,3.9106,3.9112,3.9128,3.9135,3.9152,3.9142,3.9149,3.9164,3.9172,3.9193,3.9169,3.9195,3.9196,3.9193,3.9237,3.9243,3.928,3.9224,3.9224,3.9225,0,3.9031,3.9046,3.9077,3.9094,3.9101,3.9116,3.9134,3.9149,3.9164,3.9168,3.9181,3.9181,3.9203,3.919,3.9223,3.9206,3.9218,3.9224,3.9226,3.9229,3.9212,3.9243,3.9291,3.9297,3.9233,3.9232,3.9232,0,3.9049,3.9077,3.91,3.9108,3.9127,3.9139,3.9148,3.9162,3.9174,3.9191,3.92,3.9219,3.923,3.9246,3.9253,3.9241,3.9287,3.9272,3.9293,3.9293,3.9302,3.9301,3.9354,3.9308,3.9307,3.9307,3.9307,0,3.9077,3.9097,3.911,3.9124,3.9148,3.9154,3.9178,3.9187,3.9201,3.9219,3.922,3.9237,3.9244,3.9264,3.927,3.9299,3.9303,3.9309,3.931,3.9309,3.9309,3.9317,3.9315,3.9309,3.9309,3.9308,3.9308,0,3.91,3.9109,3.9136,3.9154,3.9159,3.9176,3.9193,3.9209,3.9217,3.9241,3.9247,3.926,3.9284,3.9292,3.932,3.9325,3.9359,3.9358,3.9354,3.9355,3.9376,3.9375,3.9436,3.9446,3.9392,3.9392,3.9393,0,3.9117,3.9133,3.9155,3.9168,3.9178,3.9198,3.9211,3.9219,3.9233,3.9256,3.927,3.9294,3.9314,3.9353,3.9366,3.9389,3.9389,3.941,3.9392,3.9393,3.9392,3.9392,3.9395,3.9412,3.9413,3.9413,3.9414,0,3.9148,3.9154,3.9172,3.9195,3.9211,3.9229,3.9246,3.9257,3.9269,3.9285,3.9311,3.9326,3.9358,3.9383,3.9408,3.942,3.942,3.942,3.9426,3.9425,3.9424,3.9428,3.9365,3.9418,3.9417,3.9417,3.9417,3.9417,3.917,3.9186,3.9206,3.9228,3.9243,3.9261,3.9279,3.9291,3.9312,3.9339,3.9343,3.9371,3.9392,3.9426,3.9439,3.9463,3.9458,3.9466,3.9469,3.9471,3.9474,3.942,3.9468,3.9468,3.9468,3.9467,3.9467,0,3.9203,3.9217,3.9238,3.9264,3.9284,3.9284,3.9305,3.9321,3.9346,3.9366,3.9387,3.9419,3.9445,3.9462,3.949,3.9506,3.9507,3.9513,3.9512,3.9516,3.9476,3.9469,3.9512,3.9512,3.9512,3.9512,3.9512,3.9512,3.9222,3.9251,3.926,3.9298,3.9312,3.934,3.9353,3.9371,3.9387,3.9423,3.9446,3.9457,3.9478,3.9507,3.9533,3.9538,3.9549,3.9555,3.956,3.9522,3.9518,3.9513,3.9507,3.9557,3.9557,3.9598,3.9599,3.9599]},{"header":{"parameterUnit":"m.s-1","parameterCategory":1,"la1":30.2991,"la2":30.254,"lo1":-89.0895,"lo2":-89.0444,"dy":0.0017,"dx":0.0017,"nx":28,"ny":28,"refTime":"2024-02-24T03:00:00:Z","depth":0,"parameterNumber":3,"parameterNumberName":"V-component_of_WINDS"},"data":[0,0,0,0,0,0,0,0,0,0,0,0,0,0,0,0,0,0,0,0,0,0,0,0,0,0,0,0,0,0,0,0,0,0,0,0,0,0,0,0,0,0,0,0,0,0,0,0,0,0,0,0,0,0,0,0,0,0,0.9244,0.9245,0,0.9352,0.9354,0.9355,0.9309,0.9307,0.9304,0.9301,0.9413,0.9418,0.9424,0,0,0,0,0,0,0,0,0,0,0,0,0,0.8997,0.9002,0.9244,0.9245,0.9247,0.9352,0.9354,0.9355,0.931,0.9306,0.9303,0.93,0.9411,0.9418,0.9424,0,0,0,0,0,0,0,0,0,0,0,0,0,0.9105,0.9003,0.9244,0.9237,0.9237,0.9352,0.9354,0.9355,0.931,0.9306,0.9302,0.9299,0.9409,0.9417,0.9425,0.9553,0,0,0.945,0.9453,0,0,0,0,0,0,0,0,0.9099,0.9114,0.9236,0.9237,0.9238,0.9313,0.9307,0.9422,0.9311,0.9283,0.9301,0.9297,0.9383,0.9393,0.9422,0.9558,0.9563,0.945,0.9455,0.9459,0.9461,0,0,0,0,0,0,0,0.9091,0.9109,0.9287,0.9238,0.9239,0.9228,0.9239,0.9329,0.9353,0.9285,0.9282,0.9295,0.9383,0.9414,0.9424,0.9565,0.945,0.9457,0.9462,0.9466,0.9809,0.9813,0,0,0,0,0,0,0.9084,0.9103,0.9283,0.929,0.9157,0.9235,0.9248,0.9293,0.9352,0.9358,0.9298,0.9293,0.9402,0.9415,0.9428,0.958,0.9459,0.9466,0.9471,0.9805,0.981,0.9814,0,0,0,0,0,0,0.9079,0.91,0.9279,0.9196,0.9218,0.9244,0.9295,0.9297,0.9329,0.9363,0.9367,0.9326,0.94,0.9417,0.9522,0.9583,0.947,0.9477,0.98,0.9806,0.9812,0.9886,0,0,0,0,0,0,0.9072,0.9099,0.9148,0.9197,0.9222,0.9372,0.9299,0.9302,0.9343,0.9336,0.939,0.9395,0.9398,0.951,0.953,0.9592,0.9484,0.9794,0.9803,0.981,0.9878,0.9894,0.9908,0,0,0,0,0,0.9063,0.9165,0.9151,0.9173,0.9284,0.9375,0.939,0.9391,0.9348,0.9397,0.9419,0.9393,0.9573,0.9521,0.9543,0.9609,0.979,0.98,0.981,0.9872,0.9891,0.9907,0,0,0,0,0,0,0.9123,0.9172,0.9156,0.9277,0.9322,0.9367,0.943,0.9412,0.947,0.9462,0.9461,0.9474,0.9582,0.9606,0.9547,0.9735,0.9675,0.969,0.9715,0.9734,0.9748,0.9739,0.949,0,0,0,0,0,0.9151,0.922,0.9259,0.9362,0.9385,0.9404,0.9444,0.944,0.9487,0.9506,0.9535,0.9582,0.9648,0.9693,0.9756,0.9882,0.9891,0.9938,0.9952,0.9964,0.9976,1.0042,1.0062,0.9846,0.9846,0.9846,0,0,0.9208,0.9243,0.9287,0.9375,0.941,0.9481,0.942,0.9499,0.9552,0.9518,0.9619,0.9642,0.9693,0.9808,0.9861,0.9832,1.0038,0.9977,0.9986,0.9992,1.0054,1.0074,1.0093,0.9852,0.9851,0.985,0,0,0.9349,0.9383,0.9471,0.9507,0.956,0.9571,0.9592,0.964,0.9653,0.9754,0.9729,0.9792,0.9908,0.9945,0.9979,1.0131,1.0109,1.0152,1.0229,1.0293,1.031,1.0325,1.0377,1.0396,1.0164,1.0165,1.0165,0,0.9413,0.952,0.9519,0.96,0.9638,0.961,0.9699,0.9734,0.9805,0.9832,0.9798,0.9941,0.9974,1.0096,1.0133,1.0163,1.0185,1.0146,1.0308,1.0323,1.0337,1.0387,1.0406,1.0169,1.0169,1.0168,1.0168,0,0.9596,0.967,0.9736,0.9803,0.985,0.9934,0.9945,0.9992,0.9984,0.9999,1.0101,1.0139,1.0208,1.0238,1.0232,1.0359,1.0339,1.0307,1.0247,1.0362,1.0409,1.0428,1.0176,1.0174,1.0173,1.0172,0,0,0.9778,0.9843,0.9867,0.9896,0.9952,1.0009,1.0092,1.0159,1.0198,1.0248,1.0316,1.0413,1.0383,1.0422,1.042,1.0476,1.0591,1.0437,1.0438,1.0463,1.0731,1.0753,1.0775,1.0577,1.0581,1.0584,1.0726,0,0.9921,1.0065,1.0066,1.0198,1.0266,1.024,1.0311,1.0352,1.0368,1.0427,1.0444,1.0512,1.0469,1.0491,1.0546,1.0566,1.0645,1.0556,1.0639,1.0642,1.0626,1.08,1.0825,1.0956,1.0744,1.0747,1.0749,0,1.0108,1.0162,1.0301,1.0344,1.0372,1.0437,1.0497,1.0555,1.06,1.0607,1.0649,1.0638,1.0721,1.0659,1.0772,1.0711,1.0745,1.076,1.0765,1.0772,1.0702,1.081,1.0999,1.1018,1.0779,1.0776,1.0774,0,1.0224,1.0332,1.0428,1.0455,1.0508,1.0553,1.0578,1.062,1.0659,1.0713,1.0738,1.08,1.0834,1.0882,1.0887,1.0842,1.1,1.0939,1.1007,1.1007,1.104,1.1038,1.1236,1.1065,1.1065,1.1065,1.1064,0,1.0383,1.0468,1.0481,1.054,1.0634,1.0634,1.0727,1.0748,1.0785,1.0847,1.0829,1.0887,1.0891,1.0951,1.0956,1.1047,1.1063,1.107,1.107,1.1071,1.1069,1.1092,1.1082,1.107,1.1069,1.1068,1.1067,0,1.0528,1.054,1.0643,1.0685,1.0697,1.0765,1.08,1.0856,1.0869,1.0947,1.0966,1.0986,1.1056,1.1066,1.1147,1.115,1.1259,1.125,1.1243,1.1242,1.1308,1.1301,1.1526,1.1554,1.1367,1.1369,1.137,0,1.0628,1.0693,1.0741,1.0781,1.0807,1.0872,1.0912,1.0914,1.0956,1.1012,1.1061,1.1128,1.1181,1.1293,1.1315,1.1376,1.1368,1.1442,1.1377,1.1375,1.1366,1.1362,1.1367,1.1454,1.1457,1.1458,1.146,0,1.0803,1.0805,1.0863,1.0924,1.0972,1.1019,1.1064,1.1098,1.1105,1.1154,1.1224,1.1265,1.1347,1.1414,1.1474,1.1498,1.148,1.148,1.1498,1.1499,1.1492,1.1494,1.1276,1.1475,1.1473,1.1472,1.1471,1.1471,1.0927,1.0983,1.1025,1.109,1.1123,1.1165,1.1219,1.1238,1.1297,1.1363,1.1361,1.1437,1.1479,1.1558,1.1587,1.1646,1.1621,1.1649,1.1656,1.1662,1.1667,1.1483,1.1657,1.1657,1.1656,1.1656,1.1656,0,1.1099,1.1125,1.1185,1.1247,1.1298,1.1276,1.1324,1.1368,1.1435,1.1476,1.1528,1.1608,1.1671,1.1698,1.176,1.1802,1.1795,1.1818,1.1814,1.1819,1.1687,1.1663,1.1822,1.1822,1.1822,1.1822,1.1822,1.1822,1.1195,1.1287,1.1294,1.1401,1.1426,1.1501,1.1529,1.1567,1.1599,1.1689,1.1741,1.1758,1.1792,1.1856,1.1913,1.1919,1.1942,1.1968,1.197,1.1846,1.1829,1.1813,1.1791,1.1974,1.1974,1.2098,1.2099,1.21]}]]